Regional Weather Roundup
Issued by NWS

Home | Current Version | Previous Version | Graphics & Text | Print | Product List | Glossary On
Versions: 1 2 3 4 5 6 7 8 9 10 11 12 13 14 15 16 17 18 19 20 21 22 23 24 25 26 27 28 29 30 31 32 33 34 35 36 37 38 39 40 41 42 43 44 45 46 47 48 49 50
000
ASUS44 KMEG 240800
RWRTN
TENNESSEE HOURLY STATE WEATHER ROUNDUP
NATIONAL WEATHER SERVICE MEMPHIS TN
200 AM CST FRI FEB 24 2017

TNZ002-004-019-021-049-052-054-088>092-240900-
WEST TENNESSEE

CITY           SKY/WX    TMP DP  RH WIND       PRES   REMARKS
MEMPHIS INTL   CLEAR     63  59  87 S12       29.67F
NWS MEMPHIS      N/A     64 N/A N/A MISG        N/A
JACKSON        CLEAR     63  58  83 S10G18    29.70S
UNION CITY     CLEAR     63  63 100 S8        29.64R
PARIS          CLEAR     61  54  77 S15       29.67F
$$

TNZ008-025-027-028-033-062-065-066-240900-
NORTH MIDDLE TENNESSEE

CITY           SKY/WX    TMP DP  RH WIND       PRES   REMARKS
NASHVILLE      CLEAR     65  55  70 S14       29.75F
CLARKSVILLE    PTCLDY    65  54  67 S14G22    29.70F
SMYRNA         CLEAR     61  55  81 S5        29.77S
CROSSVILLE     CLEAR     61  48  62 S12G24    29.83S
$$

TNZ061-075-076-078-094-096-097-240900-
SOUTH MIDDLE TENNESSEE

CITY           SKY/WX    TMP DP  RH WIND       PRES   REMARKS
TULLAHOMA      CLEAR     59  54  82 S6        29.81S
WINCHESTER     CLEAR     61  54  77 S6        29.82R
MCMINNVILLE    CLEAR     63  54  72 S6        29.80S
COLUMBIA       CLEAR     64  64 100 S9        29.75S
SHELBYVILLE    CLEAR     61  55  82 S6        29.80R
$$

TNZ017-018-042-046-047-240900-
NORTHEAST TENNESSEE

CITY           SKY/WX    TMP DP  RH WIND       PRES   REMARKS
TRI CITIES     PTCLDY    48  46  93 N3        29.87F
$$

TNZ012-013-036-069-073-074-240900-
CENTRAL EAST TENNESSEE

CITY           SKY/WX    TMP DP  RH WIND       PRES   REMARKS
KNOXVILLE      PTCLDY    54  50  86 CALM      29.82F
OAK RIDGE      CLEAR     52  50  93 CALM      29.84F
GATLINBURG     CLEAR     46  46 100 CALM      29.83S
$$

TNZ083-085-099-240900-
SOUTHEAST TENNESSEE

CITY           SKY/WX    TMP DP  RH WIND       PRES   REMARKS
CHATTANOOGA    CLEAR     53  50  89 CALM      29.84S
$$

SKY/WX REPORTED AS FAIR MEANS FEW OR NO CLOUDS BELOW
12 THOUSAND FEET.





USA.gov is the U.S. government's official web portal to all federal, state and local government web resources and services.